Database: COMPET-N - COOP - 3PL - 4PL - CNDOOM

WAD: Doom | Doom 2 | TNT | Plutonia | AV | HR | Scythe | MM | MM2 | Requiem | CE
Category: speed | nmare | max | nm100s | tyson | pacifist | fast | respawn | nomo | misc | built | all
Highscore: ALL | IWAD | PWAD | Country | Continent

Remove: wad | map | category | player | all
MapPlayerTimeDateFilenameCommentsDL
MAP15: The TwilightVdgg 2:32.002012-01-21pf15-232.zip - 306
MAP12: The WaterwayVdgg 3:28.572018-11-15m212f328.zip - 162
MAP12: The WaterwayVdgg 4:22.002010-01-14m212f422.zip - 247
MAP13: The CryptVdgg 4:32.002010-05-22pf13-432.zip - 288
MAP09: Deep Down BelowVdgg 6:49.002020-02-29rf09-649.zip - 7
MAP24: Procrustes ChambersVdgg 6:53.602015-07-09rf24-653.zip - 241
MAP04: RatamahattaVdgg 8:15.002010-05-15m204f815.zip - 288
MAP05: Rites of PassageVdgg 8:20.002010-05-19m205f820.zip - 203
MAP03: Poison ProcessingVdgg 8:51.002011-10-12rf03-851.zip - 270
MAP23: TombstoneVdgg 9:22.002011-08-13pf23-922.zip - 249
MAP24: Procrustes ChambersVdgg 9:44.002010-07-30rf24-944.zip - 176
MAP13: The Inmost Dens IIVdgg 10:12.002011-04-12mm131012.zip - 174
MAP18: RegulateVdgg 12:15.002011-04-16m2181215.zip - 272
MAP10: Clear for DeathVdgg 12:20.002010-05-17m2101220.zip - 189
MAP17: No OneVdgg 13:58.002010-01-23m2171358.zip - 261
MAP15: The Devils CoterieVdgg 15:06.002010-06-05m2151506.zip - 255
MAP25: Forgotten TownVdgg 15:07.002011-04-26m2251507.zip - 231
MAP18: RegulateVdgg 17:40.002010-01-23m2181740.zip - 181
MAP29: Kings of MetalVdgg 18:23.002010-11-12m2291823.zip - 245
MAP23: No Way OutVdgg 19:59.002010-05-31m2231959.zip - 237
MAP14: A Question of TimeVdgg 20:27.002010-01-21m2142027.zip - 245
MAP25: Forgotten TownVdgg 22:39.002010-05-16m2252239.zip - 171
MAP29: Kings of MetalVdgg 25:50.002010-03-04m2292550.zip - 145
MAP22: R.R.F. RefinaryVdgg 26:08.002010-08-06m2222608.zip - 238
MAP19: The ShaftVdgg 26:56.002010-07-05m2192656.zip - 219
MAP28: Whispering ShadowsVdgg 27:45.002011-05-04af282745.zip - 258
MAP28: City of the UnavengedVdgg 28:59.002010-08-04mm282859.zip - 237
MAP28: Corporate HellVdgg 29:51.002010-11-12m2282951.zip - 250
MAP28: City of the UnavengedVdgg 37:59.002010-08-02mm283759.zip - 182
Remove: wad | map | category | player | all